Location: Northam
(31.6525°S, 116.6655°E)
Time: 09:02:49
(UTC+08:00)

N. Korean satellite - Pass Details

Date: 23 May 2021
Orbit: 450 x 500 km, 97.2° (Epoch: 13 June)

Event Time Altitude Azimuth Distance (km) Brightness Sun altitude
Rises 05:13:38 0° 358° (N) 2,494 10.3 -22.3°
Reaches altitude 10° 05:15:43 10° 351° (N) 1,635 9.2 -21.8°
Enters shadow 05:16:17 14° 347° (NNW) 1,415 8.9 -21.7°
